[[{"header":{"parameterUnit":"m.s-1","parameterCategory":1,"la1":30.2991,"la2":30.254,"lo1":-89.0895,"lo2":-89.0444,"dy":0.0017,"dx":0.0017,"nx":28,"ny":28,"refTime":"2024-03-24T03:00:00:Z","depth":0,"parameterNumber":2,"parameterNumberName":"U-component_of_WINDS"},"data":[0,0,0,0,0,0,0,0,0,0,0,0,0,0,0,0,0,0,0,0,0,0,0,0,0,0,0,0,0,0,0,0,0,0,0,0,0,0,0,0,0,0,0,0,0,0,0,0,0,0,0,0,0,0,0,0,0,0,-5.7398,-5.74,0,-5.7563,-5.7564,-5.7566,-5.7583,-5.7582,-5.758,-5.7578,-5.7745,-5.7751,-5.7757,0,0,0,0,0,0,0,0,0,0,0,0,0,-5.7097,-5.7102,-5.7398,-5.74,-5.7402,-5.7562,-5.7565,-5.7567,-5.7584,-5.7582,-5.758,-5.7578,-5.7743,-5.775,-5.7757,0,0,0,0,0,0,0,0,0,0,0,0,0,-5.7241,-5.7104,-5.7397,-5.743,-5.7434,-5.7562,-5.7565,-5.7567,-5.7584,-5.7582,-5.7579,-5.7577,-5.7741,-5.7749,-5.7758,-5.7864,0,0,-5.7786,-5.779,0,0,0,0,0,0,0,0,-5.7233,-5.7252,-5.7423,-5.7428,-5.7433,-5.755,-5.752,-5.7667,-5.7585,-5.7527,-5.7578,-5.7575,-5.7682,-5.7696,-5.7732,-5.7872,-5.7879,-5.7787,-5.7792,-5.7796,-5.7798,0,0,0,0,0,0,0,-5.7223,-5.7245,-5.7463,-5.7425,-5.7432,-5.7436,-5.7453,-5.7548,-5.7617,-5.7532,-5.7534,-5.7553,-5.7684,-5.7723,-5.7736,-5.7882,-5.7786,-5.7794,-5.78,-5.7803,-5.8118,-5.812,0,0,0,0,0,0,-5.7207,-5.7237,-5.7458,-5.7468,-5.7325,-5.7443,-5.7463,-5.7515,-5.7616,-5.7629,-5.7555,-5.7553,-5.7709,-5.7725,-5.7742,-5.7873,-5.7796,-5.7804,-5.7809,-5.8115,-5.8118,-5.8121,0,0,0,0,0,0,-5.7201,-5.7227,-5.7451,-5.7353,-5.7382,-5.7451,-5.7509,-5.7519,-5.7558,-5.7633,-5.7645,-5.7582,-5.7708,-5.7729,-5.7834,-5.7878,-5.7808,-5.7816,-5.8111,-5.8116,-5.812,-5.8134,0,0,0,0,0,0,-5.7192,-5.7224,-5.7265,-5.7354,-5.7387,-5.7541,-5.7512,-5.7525,-5.7574,-5.7573,-5.7662,-5.7674,-5.7707,-5.782,-5.7843,-5.789,-5.7823,-5.8107,-5.8113,-5.8118,-5.813,-5.8139,-5.8146,0,0,0,0,0,-5.7181,-5.7262,-5.7267,-5.7294,-5.744,-5.7543,-5.7562,-5.7599,-5.7578,-5.7619,-5.7668,-5.7671,-5.7871,-5.7831,-5.7856,-5.7906,-5.8105,-5.8112,-5.8118,-5.8127,-5.8137,-5.8146,0,0,0,0,0,0,-5.7176,-5.7274,-5.7281,-5.7393,-5.746,-5.7546,-5.7599,-5.7609,-5.7683,-5.7679,-5.7722,-5.7741,-5.7844,-5.7886,-5.7841,-5.8015,-5.7985,-5.7997,-5.7983,-5.7994,-5.8002,-5.7988,-5.7831,0,0,0,0,0,-5.7188,-5.7264,-5.7346,-5.7437,-5.747,-5.7529,-5.7576,-5.7599,-5.7669,-5.7697,-5.7753,-5.7821,-5.7899,-5.7949,-5.8025,-5.8137,-5.8156,-5.8184,-5.8192,-5.8198,-5.8208,-5.827,-5.8283,-5.8143,-5.8143,-5.8143,0,0,-5.7213,-5.7277,-5.7322,-5.7438,-5.7492,-5.757,-5.7553,-5.7635,-5.7693,-5.771,-5.7812,-5.7855,-5.7934,-5.8043,-5.8094,-5.8081,-5.8251,-5.8207,-5.8211,-5.8217,-5.8278,-5.8292,-5.8303,-5.8148,-5.8147,-5.8146,0,0,-5.7299,-5.7355,-5.7437,-5.7492,-5.7575,-5.7614,-5.7634,-5.7719,-5.7749,-5.7853,-5.7867,-5.7937,-5.807,-5.8125,-5.8171,-5.828,-5.8286,-5.8303,-5.8344,-5.8405,-5.8416,-5.8426,-5.8464,-5.8477,-5.8313,-5.8313,-5.8313,0,-5.732,-5.7437,-5.7478,-5.756,-5.7611,-5.7631,-5.7714,-5.7766,-5.7869,-5.7903,-5.7888,-5.8057,-5.8111,-5.8233,-5.826,-5.8297,-5.832,-5.8292,-5.8411,-5.8421,-5.8431,-5.8468,-5.8482,-5.8314,-5.8314,-5.8314,-5.8314,0,-5.7459,-5.754,-5.7597,-5.7697,-5.7754,-5.7836,-5.7889,-5.7942,-5.7961,-5.8001,-5.8107,-5.8173,-5.8263,-5.8294,-5.8313,-5.842,-5.8409,-5.8402,-5.8373,-5.8445,-5.848,-5.8495,-5.8317,-5.8316,-5.8316,-5.8315,0,0,-5.7543,-5.7666,-5.7686,-5.7732,-5.7826,-5.7889,-5.7973,-5.8062,-5.8106,-5.8178,-5.8248,-5.8362,-5.8356,-5.8408,-5.8434,-5.8487,-5.8569,-5.8474,-5.8476,-5.8488,-5.869,-5.8693,-5.8709,-5.8574,-5.8577,-5.8579,-5.8683,0,-5.7638,-5.7788,-5.7828,-5.7955,-5.8031,-5.8052,-5.8125,-5.8191,-5.8231,-5.8301,-5.8346,-5.8426,-5.8413,-5.8444,-5.8498,-5.8547,-5.8609,-5.8541,-5.8639,-5.8642,-5.8617,-5.8727,-5.8731,-5.8825,-5.8697,-5.8699,-5.8701,0,-5.7769,-5.7844,-5.7978,-5.8064,-5.8097,-5.8162,-5.8247,-5.8314,-5.8389,-5.8415,-5.8473,-5.8495,-5.8583,-5.8551,-5.8672,-5.8625,-5.8668,-5.8698,-5.8703,-5.8712,-5.8674,-5.8738,-5.8856,-5.887,-5.8723,-5.8721,-5.872,0,-5.7816,-5.795,-5.8048,-5.8087,-5.8189,-5.8234,-5.8279,-5.8351,-5.8402,-5.8477,-5.851,-5.8594,-5.8639,-5.8703,-5.8747,-5.872,-5.8865,-5.8836,-5.8888,-5.8887,-5.8915,-5.8913,-5.9041,-5.8946,-5.8946,-5.8946,-5.8945,0,-5.7917,-5.7998,-5.8071,-5.8131,-5.8223,-5.8268,-5.8358,-5.8403,-5.8468,-5.8537,-5.8561,-5.8626,-5.868,-5.8751,-5.8786,-5.8881,-5.8902,-5.8925,-5.8932,-5.8922,-5.8918,-5.8949,-5.8943,-5.895,-5.8949,-5.8948,-5.8947,0,-5.7984,-5.8036,-5.8144,-5.8232,-5.8257,-5.832,-5.8396,-5.8455,-5.8497,-5.8585,-5.8608,-5.8674,-5.876,-5.881,-5.8918,-5.8941,-5.9047,-5.9052,-5.9021,-5.9024,-5.9072,-5.9067,-5.9223,-5.9246,-5.9137,-5.9138,-5.9139,0,-5.8044,-5.8107,-5.8203,-5.8251,-5.8297,-5.8374,-5.8427,-5.8474,-5.8528,-5.8619,-5.8667,-5.8755,-5.8827,-5.8964,-5.9021,-5.9104,-5.9111,-5.916,-5.9123,-5.9111,-5.911,-5.9105,-5.9112,-5.9166,-5.9167,-5.9167,-5.9168,0,-5.8145,-5.8168,-5.8243,-5.8328,-5.8391,-5.846,-5.8528,-5.8566,-5.8625,-5.8685,-5.8773,-5.8829,-5.8941,-5.9027,-5.9115,-5.9161,-5.9174,-5.918,-5.9196,-5.9184,-5.9163,-5.9174,-5.9037,-5.9175,-5.9175,-5.9174,-5.9174,-5.9173,-5.821,-5.8267,-5.8344,-5.8427,-5.8484,-5.8547,-5.8607,-5.8658,-5.8733,-5.8827,-5.8851,-5.8944,-5.9018,-5.9138,-5.9186,-5.9259,-5.9251,-5.9274,-5.928,-5.9285,-5.9286,-5.9153,-5.9276,-5.9276,-5.9276,-5.9275,-5.9275,0,-5.8311,-5.8362,-5.8438,-5.8534,-5.8599,-5.8608,-5.8685,-5.8739,-5.882,-5.8889,-5.896,-5.9062,-5.9146,-5.9211,-5.9298,-5.9344,-5.9352,-5.9365,-5.9361,-5.9371,-5.9289,-5.9266,-5.9357,-5.9357,-5.9357,-5.9357,-5.9357,-5.9357,-5.8372,-5.8469,-5.8501,-5.8627,-5.8677,-5.8769,-5.8812,-5.8871,-5.8926,-5.9039,-5.9109,-5.9152,-5.9219,-5.9311,-5.9389,-5.9406,-5.9436,-5.9447,-5.9465,-5.9386,-5.9377,-5.9369,-5.9347,-5.9454,-5.9454,-5.9541,-5.9542,-5.9543]},{"header":{"parameterUnit":"m.s-1","parameterCategory":1,"la1":30.2991,"la2":30.254,"lo1":-89.0895,"lo2":-89.0444,"dy":0.0017,"dx":0.0017,"nx":28,"ny":28,"refTime":"2024-03-24T03:00:00:Z","depth":0,"parameterNumber":3,"parameterNumberName":"V-component_of_WINDS"},"data":[0,0,0,0,0,0,0,0,0,0,0,0,0,0,0,0,0,0,0,0,0,0,0,0,0,0,0,0,0,0,0,0,0,0,0,0,0,0,0,0,0,0,0,0,0,0,0,0,0,0,0,0,0,0,0,0,0,0,4.4619,4.462,0,4.4726,4.4727,4.4728,4.4746,4.4745,4.4744,4.4743,4.485,4.4854,4.4858,0,0,0,0,0,0,0,0,0,0,0,0,0,4.4431,4.4435,4.4619,4.462,4.4622,4.4725,4.4727,4.4728,4.4746,4.4745,4.4743,4.4742,4.4849,4.4853,4.4858,0,0,0,0,0,0,0,0,0,0,0,0,0,4.4523,4.4436,4.4619,4.4643,4.4646,4.4725,4.4727,4.4729,4.4746,4.4745,4.4743,4.4742,4.4848,4.4853,4.4859,4.492,0,0,4.4876,4.4878,0,0,0,0,0,0,0,0,4.4518,4.453,4.4638,4.4641,4.4645,4.4721,4.47,4.4793,4.4746,4.4708,4.4743,4.4741,4.4808,4.4817,4.484,4.4925,4.493,4.4876,4.4879,4.4882,4.4883,0,0,0,0,0,0,0,4.4511,4.4525,4.4661,4.464,4.4644,4.4649,4.466,4.4718,4.4764,4.4711,4.4713,4.4725,4.481,4.4834,4.4843,4.4932,4.4876,4.4881,4.4884,4.4886,4.5076,4.5078,0,0,0,0,0,0,4.4501,4.452,4.4658,4.4664,4.4577,4.4653,4.4666,4.4698,4.4764,4.4773,4.4726,4.4726,4.4826,4.4836,4.4846,4.4925,4.4882,4.4887,4.489,4.5074,4.5077,4.5078,0,0,0,0,0,0,4.4496,4.4513,4.4653,4.4593,4.4611,4.4658,4.4694,4.4701,4.4725,4.4775,4.4784,4.4743,4.4825,4.4839,4.4903,4.4929,4.4889,4.4895,4.5072,4.5075,4.5077,4.5082,0,0,0,0,0,0,4.4491,4.4511,4.4535,4.4593,4.4614,4.4708,4.4695,4.4704,4.4735,4.4735,4.4793,4.4801,4.4825,4.4894,4.4908,4.4936,4.4899,4.507,4.5074,4.5077,4.5079,4.5084,4.5088,0,0,0,0,0,4.4484,4.4531,4.4536,4.4552,4.4645,4.4709,4.4721,4.4748,4.4737,4.4762,4.4794,4.4799,4.4924,4.4901,4.4916,4.4946,4.5069,4.5073,4.5076,4.5077,4.5083,4.5088,0,0,0,0,0,0,4.4473,4.4539,4.4545,4.4612,4.4655,4.4712,4.4743,4.4753,4.4799,4.4797,4.4828,4.4841,4.4904,4.4932,4.4905,4.5011,4.4996,4.5003,4.4991,4.4997,4.5001,4.4993,4.4904,0,0,0,0,0,4.4479,4.4526,4.458,4.4634,4.4655,4.4696,4.4725,4.4742,4.4788,4.4806,4.4843,4.4887,4.4936,4.4968,4.5016,4.5084,4.5097,4.5112,4.5116,4.512,4.5126,4.5166,4.5174,4.5091,4.5091,4.5091,0,0,4.449,4.4532,4.4559,4.4633,4.4668,4.4717,4.4711,4.4762,4.4799,4.4813,4.4877,4.4906,4.4957,4.5024,4.5055,4.5049,4.5152,4.5125,4.5127,4.5131,4.5171,4.5178,4.5185,4.5094,4.5093,4.5093,0,0,4.4536,4.4572,4.4622,4.4658,4.4712,4.4739,4.4751,4.4808,4.4828,4.4892,4.4905,4.4949,4.5033,4.507,4.5099,4.5162,4.517,4.5177,4.52,4.5239,4.5245,4.5251,4.5275,4.5283,4.5183,4.5183,4.5183,0,4.4543,4.4617,4.4646,4.4697,4.473,4.4747,4.4799,4.4832,4.4899,4.4922,4.4913,4.5021,4.5056,4.5133,4.5149,4.5172,4.5187,4.5171,4.5242,4.5248,4.5254,4.5278,4.5286,4.5183,4.5183,4.5183,4.5183,0,4.4625,4.4676,4.4709,4.4775,4.4812,4.4862,4.49,4.4933,4.4948,4.4976,4.5043,4.5086,4.5144,4.5164,4.5178,4.5244,4.5238,4.5236,4.5221,4.5262,4.5285,4.5294,4.5184,4.5184,4.5184,4.5184,0,0,4.4665,4.4748,4.476,4.4791,4.4854,4.4894,4.4946,4.5005,4.5034,4.508,4.5125,4.5197,4.5196,4.523,4.5248,4.5282,4.5332,4.5276,4.5278,4.5286,4.5409,4.5412,4.5421,4.5337,4.5339,4.534,4.5406,0,4.472,4.4814,4.4843,4.4923,4.4971,4.499,4.5036,4.5079,4.5108,4.5153,4.5184,4.5235,4.5229,4.525,4.5285,4.5319,4.5357,4.5314,4.5381,4.5383,4.5368,4.5433,4.5435,4.5494,4.5414,4.5416,4.5417,0,4.4795,4.4845,4.493,4.4988,4.501,4.5051,4.5108,4.5151,4.5201,4.522,4.5259,4.5275,4.5332,4.5314,4.5393,4.5363,4.5392,4.5413,4.5416,4.5424,4.5403,4.5443,4.5513,4.5523,4.5431,4.543,4.5429,0,4.4819,4.4906,4.4969,4.4995,4.5064,4.5093,4.5123,4.5173,4.5206,4.5256,4.5279,4.5334,4.5364,4.5407,4.5438,4.5422,4.5515,4.5499,4.5533,4.5532,4.5552,4.555,4.5629,4.5569,4.5569,4.5569,4.5569,0,4.4877,4.4929,4.4981,4.5019,4.5078,4.5111,4.5169,4.52,4.5244,4.529,4.5308,4.5351,4.5389,4.5437,4.5462,4.5525,4.5538,4.5555,4.5561,4.5554,4.5552,4.5574,4.5571,4.5571,4.5571,4.557,4.557,0,4.4913,4.4949,4.502,4.508,4.5097,4.5138,4.519,4.5229,4.5259,4.5317,4.5332,4.5379,4.5436,4.5472,4.5544,4.5561,4.5631,4.5635,4.5614,4.5617,4.5649,4.5646,4.5745,4.576,4.5689,4.569,4.569,0,4.4948,4.4988,4.5054,4.5087,4.5118,4.5169,4.5205,4.5239,4.5275,4.5337,4.5369,4.5428,4.5477,4.5569,4.5609,4.5665,4.5671,4.5702,4.568,4.5672,4.5674,4.5671,4.5676,4.5706,4.5707,4.5707,4.5707,0,4.5007,4.5024,4.5074,4.5132,4.5174,4.5221,4.5267,4.5293,4.5335,4.5375,4.5435,4.5473,4.5549,4.5608,4.5668,4.57,4.5711,4.5714,4.5725,4.5719,4.5706,4.5715,4.5626,4.5712,4.5711,4.5711,4.5711,4.5711,4.5045,4.5083,4.5136,4.5192,4.5231,4.5275,4.5315,4.5351,4.5401,4.5466,4.5483,4.5546,4.5598,4.5681,4.5714,4.5764,4.576,4.5775,4.5779,4.5783,4.5784,4.5697,4.5775,4.5775,4.5775,4.5775,4.5775,0,4.5106,4.5142,4.5193,4.5259,4.5304,4.5312,4.5365,4.5402,4.5457,4.5505,4.5553,4.5623,4.5681,4.5727,4.5787,4.5818,4.5825,4.5833,4.5831,4.5839,4.5784,4.5769,4.5826,4.5826,4.5826,4.5826,4.5826,4.5826,4.5144,4.5209,4.5232,4.5318,4.5353,4.5416,4.5445,4.5486,4.5525,4.5602,4.5651,4.5681,4.5729,4.5792,4.5846,4.5858,4.588,4.5887,4.59,4.5848,4.5842,4.5837,4.5823,4.5891,4.5891,4.5951,4.5952,4.5952]}]]